Theta_e
319 317 318 324 320 314 317 318 316 318 318 320 321 323 324 328 331 323 331 331 330 329 330 331 332 332 333 325 318 313 311 310 311 312 313 318 329 332 332 331 324 313 310 310 311 318 322 324 323
318 317 321 323 316 315 315 315 317 318 318 321 324 325 327 332 334 333 330 331 331 331 332 331 332 332 330 323 318 319 318 317 314 310 310 315 326 329 328 325 317 311 309 309 312 321 321 326 325
316 319 321 316 312 314 315 317 316 318 320 321 321 325 328 333 334 331 330 331 332 332 332 331 331 332 330 325 318 322 324 323 320 318 314 310 324 323 317 313 310 309 308 309 315 317 319 322 324
317 322 319 314 316 316 314 316 317 317 319 321 322 325 329 333 334 333 333 330 331 333 331 330 330 332 330 327 318 320 324 323 320 319 319 315 315 314 312 310 308 307 307 308 309 314 319 321 322
319 320 315 318 318 316 316 317 317 316 318 320 323 323 332 333 335 335 336 337 336 333 333 329 330 330 330 328 321 319 323 323 322 321 321 320 318 316 313 309 308 306 307 307 309 312 316 324 323
320 317 315 317 317 315 316 319 318 316 317 319 323 329 334 336 337 336 336 337 336 335 333 331 329 330 329 328 326 321 321 324 323 322 321 321 319 316 314 311 308 307 306 306 308 311 315 320 321
318 314 317 318 316 316 315 319 317 317 317 318 323 321 331 336 337 338 338 336 336 336 334 332 329 330 329 328 328 326 321 323 324 323 322 321 321 318 315 313 311 308 306 306 307 309 313 316 318
319 314 317 316 315 317 316 317 317 317 316 318 320 324 328 333 335 337 336 336 334 334 335 333 330 330 330 328 328 327 326 323 325 324 324 322 321 320 317 316 315 313 309 306 306 308 311 314 317
318 312 313 316 315 316 316 316 317 317 319 318 319 321 322 326 333 337 336 336 333 333 334 335 331 329 330 328 328 328 328 326 325 325 324 323 322 322 322 320 319 317 315 310 307 307 310 312 315
314 310 313 314 314 315 316 316 317 317 317 318 318 320 322 322 329 337 337 336 334 333 333 333 333 330 330 329 328 328 328 328 327 325 325 324 324 323 324 323 322 320 318 316 314 312 311 311 312
314 312 312 315 316 317 316 315 316 314 313 316 317 318 322 322 328 327 334 336 334 333 332 333 332 330 330 330 329 329 328 328 328 327 326 325 325 324 324 324 323 322 321 320 317 316 316 315 316
315 314 315 316 315 315 315 316 315 315 316 316 316 316 319 322 324 324 327 331 334 334 332 332 328 330 331 331 330 329 329 328 328 328 327 326 326 325 325 324 323 323 322 321 320 319 318 317 317
314 313 315 316 315 315 315 315 315 315 316 317 317 317 318 319 319 321 321 327 332 334 334 333 333 330 330 329 331 330 329 329 328 329 328 328 327 326 326 324 324 323 321 321 321 321 321 320 319
314 314 314 315 314 315 314 313 315 315 316 316 316 317 318 319 319 319 322 323 326 329 331 332 333 333 330 331 329 329 329 329 330 330 329 327 327 326 327 326 325 324 323 321 321 320 320 320 319
314 312 312 313 314 314 314 310 311 314 316 316 316 316 317 318 319 319 317 318 320 320 325 327 328 331 328 331 330 331 331 330 331 329 330 330 328 327 326 326 327 325 323 321 321 320 320 320 319
312 309 309 311 313 314 311 307 309 315 314 314 316 315 316 317 317 317 317 317 318 320 321 321 324 328 330 328 330 331 331 331 330 330 330 330 330 328 328 328 327 327 324 322 322 321 320 320 320
308 308 310 312 312 313 311 310 311 315 314 314 314 315 315 315 316 316 316 316 316 318 319 322 323 323 324 326 329 331 330 329 331 330 330 330 332 330 328 328 328 328 328 324 323 322 321 321 320
311 311 311 311 312 313 313 311 310 315 313 314 314 315 315 315 316 315 316 316 316 316 317 318 321 324 326 328 328 329 331 332 326 331 330 329 331 332 330 329 328 328 328 328 325 323 321 321 320
309 311 312 313 313 313 311 309 309 313 312 313 314 314 314 316 316 316 316 315 316 316 316 317 318 319 325 328 329 330 329 329 325 332 330 330 328 328 330 330 329 328 328 328 326 326 320 320 319
312 312 312 312 313 312 311 310 309 310 311 312 313 314 314 314 314 315 316 316 316 316 316 316 317 319 319 324 326 329 328 326 325 327 328 331 329 328 327 327 327 326 327 326 327 326 323 320 320
312 311 311 311 312 310 310 307 307 310 312 313 313 314 315 316 316 315 315 316 316 316 316 316 316 317 318 320 325 328 330 329 326 326 327 328 328 328 328 328 327 326 326 326 324 327 325 322 320
313 312 312 312 310 309 308 307 307 309 308 307 313 313 314 315 316 316 316 316 316 317 317 316 316 316 317 319 322 325 327 326 323 324 325 327 328 330 330 328 328 325 325 325 325 323 324 323 321
311 312 311 312 311 312 310 309 307 307 310 308 309 311 316 317 317 317 317 317 316 316 316 317 316 316 317 318 319 321 323 324 325 325 324 323 326 327 329 329 328 325 324 324 323 324 324 324 323
310 311 309 310 308 309 309 307 305 306 308 311 312 315 316 316 315 317 317 317 317 317 317 317 316 316 317 317 318 319 321 322 323 322 320 320 321 323 324 325 326 326 325 324 322 322 322 321 323
310 308 307 308 309 308 307 308 307 308 307 310 310 313 315 315 315 315 315 315 314 315 315 316 316 316 316 316 316 316 316 316 317 316 316 315 315 316 316 316 316 316 317 319 321 319 320 321 320
309 307 307 308 310 308 308 310 311 310 311 311 313 313 313 315 315 315 315 315 315 314 314 314 314 315 315 314 314 313 313 313 313 313 313 313 313 313 313 314 314 314 314 314 317 317 316 317 319
312 311 308 308 296 306 308 307 307 308 309 310 312 315 315 315 315 315 315 315 315 315 315 315 315 315 315 315 315 315 314 314 314 314 314 314 314 313 313 313 313 313 313 313 313 314 316 314 314
310 309 312 308 306 306 306 308 308 310 309 308 312 314 314 315 315 315 314 315 315 315 315 315 315 314 315 316 316 315 315 315 315 315 315 315 315 314 313 313 313 313 312 312 312 312 315 314 312
310 311 310 310 308 309 307 307 305 308 309 310 312 314 314 314 315 315 315 315 315 315 315 315 315 315 314 314 314 315 315 315 314 314 314 314 313 313 313 313 312 312 312 312 312 311 311 313 312
309 310 309 310 309 307 308 309 309 309 309 311 312 313 314 314 314 315 315 315 314 314 314 314 314 315 314 314 314 314 314 314 314 313 313 313 312 312 312 312 312 312 311 311 311 311 310 311 313
Wind_Speed
8 6 3 1 4 5 1 2 2 3 2 3 6 10 8 5 2 3 16 15 21 24 20 16 15 13 12 10 12 12 14 12 14 15 15 17 16 12 9 7 7 9 14 17 19 19 19 18 17
5 3 1 3 4 4 3 2 5 3 8 14 14 8 5 2 3 11 23 21 21 22 21 18 14 12 10 10 11 12 13 13 14 14 14 16 14 10 7 5 6 10 14 16 18 18 18 18 16
4 1 2 4 4 4 5 4 7 6 9 5 5 7 3 4 8 25 18 24 21 19 18 17 13 12 10 10 10 11 12 12 12 13 12 13 12 8 7 7 8 11 14 17 17 16 16 16 15
4 2 5 4 2 1 7 7 8 10 6 5 13 7 5 3 18 17 21 22 19 16 17 16 13 12 11 10 10 11 10 11 12 12 12 11 9 7 7 7 8 9 13 14 14 16 15 14 14
2 2 4 3 2 2 3 10 14 4 8 10 8 5 4 13 10 15 18 18 18 18 17 16 15 14 13 11 9 10 10 9 10 11 11 10 8 7 7 7 8 9 11 12 14 15 14 15 13
2 3 4 2 1 1 4 13 10 4 9 11 10 11 7 19 15 14 18 17 16 19 19 18 16 14 13 11 9 8 9 9 9 9 9 9 8 8 7 7 8 9 10 12 13 13 13 13 13
5 4 4 4 4 1 4 12 12 9 6 5 17 5 9 19 17 20 19 16 16 16 18 19 17 16 14 13 10 8 8 8 8 8 7 7 8 8 8 8 8 9 10 10 11 11 11 9 9
4 5 3 1 4 4 4 5 10 12 6 11 11 7 7 23 22 22 21 19 12 16 15 17 18 18 17 15 13 10 9 9 8 7 6 5 6 6 7 7 8 9 9 10 10 11 10 9 9
4 4 1 1 5 4 8 4 4 5 10 5 7 7 4 23 27 29 26 22 20 18 19 19 21 20 18 17 15 13 11 10 10 8 6 5 5 5 6 6 6 7 8 9 10 11 10 9 8
4 4 7 1 4 5 8 6 9 5 8 4 6 8 12 24 32 35 33 30 28 26 25 21 22 23 22 20 18 17 15 13 11 10 9 7 6 6 6 5 5 6 6 7 8 9 9 8 7
4 5 5 2 2 8 7 5 9 8 4 11 15 14 19 26 28 32 35 32 31 28 25 24 22 24 24 23 22 20 18 16 15 14 12 10 9 8 8 7 7 6 5 5 5 5 6 5 5
4 3 3 4 2 4 6 5 4 12 6 4 15 15 19 24 28 29 33 32 32 31 27 23 24 25 26 24 24 22 21 20 18 16 16 14 12 11 11 10 9 9 6 4 5 4 4 4 5
3 2 4 4 2 2 3 3 4 10 12 8 5 18 21 22 23 24 27 31 30 32 31 29 24 25 25 24 24 22 21 21 20 19 19 18 16 13 13 13 12 12 10 5 6 4 5 4 5
4 4 4 2 2 1 1 1 1 5 12 16 13 16 22 24 23 24 28 31 33 31 31 30 30 27 27 28 24 24 23 22 21 22 23 18 17 17 14 16 14 11 13 9 9 9 9 7 6
5 3 2 3 3 1 1 3 8 11 7 6 18 17 21 24 26 27 25 29 31 31 32 33 32 30 28 29 29 28 28 27 25 24 24 23 23 23 20 19 20 16 13 13 13 13 13 13 14
4 5 2 3 5 2 3 7 5 4 8 15 13 18 22 25 28 27 27 28 29 32 34 32 33 33 33 32 32 33 31 31 28 28 27 28 26 25 25 23 24 23 20 18 18 19 18 17 17
6 3 4 4 9 2 3 6 5 1 5 5 12 16 20 22 27 30 29 27 28 30 30 33 36 36 34 35 35 37 34 31 32 30 30 31 30 31 30 29 26 26 28 27 24 23 21 22 22
6 3 3 4 4 1 2 9 9 20 17 18 20 22 23 26 28 25 29 28 27 28 29 29 30 32 33 34 35 37 39 38 34 36 34 32 32 32 31 32 30 29 30 32 30 27 27 26 26
6 4 3 1 0 3 6 7 12 23 18 23 25 29 28 29 27 24 24 28 32 32 32 30 30 31 32 35 37 39 41 43 38 40 39 37 35 35 33 33 33 32 36 34 33 34 33 32 31
2 3 2 1 1 1 4 11 11 18 17 22 23 25 28 31 30 27 25 26 29 33 34 34 33 31 32 34 35 37 36 40 39 40 40 42 41 41 40 41 39 34 37 37 42 38 38 38 36
3 5 4 4 1 1 3 9 6 5 6 10 17 17 17 18 19 21 24 27 29 30 32 34 33 32 31 32 35 37 38 39 41 41 40 40 40 40 40 40 41 38 39 40 41 43 43 44 42
4 3 3 4 3 3 2 5 5 7 10 8 18 14 14 15 16 15 14 19 24 26 29 33 35 33 30 32 35 37 39 40 39 40 42 42 41 40 39 39 41 39 40 43 44 41 48 46 51
6 3 4 2 3 3 4 1 7 4 7 11 16 11 2 6 5 6 8 8 10 18 21 28 35 34 32 31 33 34 36 37 36 36 38 40 41 42 43 44 44 44 44 44 47 46 47 51 53
7 5 7 5 3 2 8 6 5 4 6 2 3 7 7 6 6 4 3 3 7 10 13 18 29 32 33 31 31 32 33 35 35 35 36 37 37 37 41 46 47 46 47 48 47 48 49 48 54
4 6 2 3 2 5 2 2 8 9 7 4 7 2 3 3 2 2 5 7 8 9 9 11 17 23 25 27 28 29 30 31 33 33 33 34 35 36 38 39 43 47 49 48 50 49 52 52 50
7 7 6 7 4 4 2 6 5 4 12 8 7 4 4 6 7 6 6 6 5 5 6 6 8 11 16 20 21 21 23 25 26 26 26 29 31 32 33 35 38 40 43 46 50 53 52 53 53
5 4 5 6 3 3 4 6 10 8 4 3 9 12 11 10 11 10 6 5 6 4 4 4 5 7 6 7 9 12 14 16 19 20 22 25 27 29 31 32 34 35 37 39 43 48 52 52 50
4 6 3 3 2 4 4 4 5 6 8 7 11 14 12 13 17 18 16 17 18 18 17 14 12 13 13 8 8 9 12 15 19 23 25 27 29 30 31 32 32 33 32 33 35 39 45 47 48
3 3 2 4 5 5 1 5 7 5 5 10 9 11 11 10 16 16 14 17 16 18 19 17 17 18 19 14 14 16 15 18 22 27 31 33 33 33 34 34 35 34 32 31 33 35 38 45 42
1 5 5 5 4 4 3 6 1 9 9 17 14 18 14 5 6 14 18 17 17 18 15 18 19 22 24 22 19 20 22 23 27 29 31 34 36 35 35 35 37 36 34 32 31 33 34 38 43
Wind_Direction
232 280 311 154 60 66 306 157 202 128 80 91 81 95 123 86 111 187 139 147 157 164 164 153 154 134 131 105 88 85 88 91 96 102 109 116 114 118 118 102 80 96 99 102 108 107 97 92 95
229 294 346 104 88 81 272 265 146 201 141 116 94 101 58 98 117 150 147 148 150 158 160 162 153 145 132 113 98 94 92 90 93 98 107 124 123 130 122 104 97 105 106 113 118 113 106 101 97
232 91 89 88 116 157 175 210 157 138 141 136 104 93 94 118 157 152 154 153 159 164 166 168 165 157 145 117 104 104 101 99 97 100 106 122 128 129 112 96 95 105 111 121 125 124 116 109 109
204 97 71 83 111 278 163 179 170 141 120 115 124 77 96 130 155 164 155 162 171 169 168 171 173 166 157 140 127 125 118 109 109 105 108 118 128 110 98 98 97 105 115 127 131 128 122 106 103
107 84 62 70 2 319 81 174 161 139 146 140 147 158 107 148 158 160 164 166 181 183 178 178 179 173 169 160 145 135 130 127 121 114 112 115 114 107 106 105 105 110 120 133 136 138 133 115 117
92 73 61 86 262 72 152 176 151 121 148 144 120 126 146 169 180 176 174 180 188 185 182 184 182 181 177 172 162 148 145 144 134 122 117 114 112 112 115 116 118 119 130 141 147 146 146 141 130
116 85 184 164 176 253 182 173 143 141 158 176 148 116 157 168 179 180 183 187 182 193 188 186 187 186 185 182 179 172 166 161 154 142 129 120 115 117 123 125 127 128 137 147 154 155 157 155 141
132 97 133 181 172 217 190 138 161 154 191 146 179 167 175 183 176 178 173 181 194 190 201 196 195 194 192 190 191 189 184 178 173 165 151 132 120 124 125 125 125 129 141 150 159 162 162 160 152
140 70 139 220 158 188 170 132 125 151 155 180 182 168 186 177 172 177 178 184 191 195 200 205 203 201 199 199 198 200 200 193 192 187 181 173 147 146 144 137 130 132 144 152 162 169 171 170 171
107 115 203 240 167 180 176 170 148 151 157 193 186 184 165 174 175 181 186 188 191 195 204 212 209 207 205 205 206 208 209 206 205 208 205 197 182 176 171 165 155 148 151 161 172 175 177 181 188
151 165 201 153 137 148 171 184 166 153 226 204 206 189 177 178 185 189 194 197 197 200 207 214 214 211 213 210 211 213 215 215 213 214 214 212 207 200 195 192 184 179 173 182 177 179 178 188 195
123 140 170 161 142 145 167 159 197 194 217 216 232 217 193 190 192 200 199 202 202 207 213 216 214 215 216 218 219 220 221 219 220 219 220 224 220 214 211 204 204 196 190 186 187 207 203 205 224
121 156 138 149 199 182 182 200 223 234 221 218 194 209 206 205 210 210 209 207 207 213 221 225 223 218 216 222 221 225 229 231 229 227 228 227 227 227 220 214 217 211 203 217 208 218 255 238 246
136 133 153 202 222 234 226 223 221 255 228 232 230 218 216 217 219 215 213 211 215 219 224 228 230 231 221 216 220 220 223 229 235 231 236 241 233 232 227 226 224 239 228 228 242 250 258 259 259
122 108 24 234 218 227 278 277 240 260 231 235 226 226 222 227 226 228 227 220 222 226 226 228 230 229 225 221 218 221 223 225 231 233 236 242 232 229 230 229 234 236 243 247 254 251 257 259 259
95 53 90 289 164 194 142 268 278 354 248 236 227 226 228 230 235 236 238 236 229 228 229 232 233 233 233 228 224 224 224 228 231 231 234 240 241 243 239 237 238 241 237 245 251 255 244 251 255
11 174 180 305 200 136 172 250 251 141 28 300 248 241 244 245 239 241 242 246 241 235 232 229 231 234 237 235 231 230 233 229 233 237 235 236 239 239 242 242 243 242 244 243 245 248 250 248 244
191 196 219 220 226 208 230 261 275 278 283 272 269 265 254 253 254 255 250 246 245 243 241 238 235 234 232 236 238 238 236 237 233 234 237 240 239 241 242 245 244 247 248 244 247 246 248 245 242
145 135 148 258 71 180 240 259 278 284 282 273 268 267 263 258 263 255 251 250 249 245 243 241 238 239 234 230 230 232 236 236 235 232 241 238 240 245 245 244 247 245 250 247 252 245 238 235 234
117 130 236 330 277 181 292 275 256 266 264 272 278 278 270 267 266 259 250 247 246 247 245 245 245 243 243 241 243 240 244 246 242 240 238 240 243 245 248 250 251 250 248 250 244 247 240 236 236
171 169 190 197 303 324 325 295 330 288 263 281 287 287 279 271 273 276 261 252 251 248 245 246 250 250 248 248 246 245 245 249 247 245 242 239 240 243 247 250 250 253 254 250 254 251 247 242 237
180 193 172 148 91 232 14 281 300 284 300 301 283 291 286 280 279 278 272 259 252 254 252 248 248 252 253 251 251 250 251 251 253 250 250 247 246 247 245 247 248 250 252 255 255 258 252 248 242
215 161 153 124 121 45 324 68 273 303 285 270 295 302 21 60 24 319 275 268 254 251 253 253 249 250 253 255 255 257 258 260 260 259 258 255 250 248 250 249 250 251 250 253 256 260 253 253 247
143 75 45 51 75 284 220 165 281 219 220 283 22 105 83 62 24 33 39 323 280 268 255 245 245 246 251 256 260 264 264 265 266 264 262 261 258 254 251 251 252 252 253 253 256 258 258 256 254
83 83 334 335 353 230 15 139 247 257 252 266 331 260 23 49 24 318 305 295 282 276 270 252 244 247 252 257 262 266 267 267 268 267 266 264 262 258 255 253 254 256 255 254 256 258 259 256 255
183 155 162 201 203 276 318 237 240 232 294 252 94 82 22 15 6 346 321 306 295 281 285 283 264 259 259 262 266 267 266 266 268 268 268 266 265 265 264 262 260 260 262 263 260 261 260 260 259
187 189 175 102 29 59 235 294 306 334 305 64 78 72 55 45 33 32 28 49 46 46 47 32 29 25 349 319 295 281 278 281 281 278 274 272 271 269 269 266 262 260 259 260 261 256 258 259 258
155 166 83 7 163 265 271 251 224 270 271 50 58 57 44 50 57 54 59 61 63 67 59 33 16 5 360 331 322 315 312 307 301 292 284 277 272 271 269 269 268 266 265 264 264 258 257 258 257
141 182 114 130 153 181 246 260 222 249 110 116 92 49 46 79 71 59 36 22 14 8 4 8 5 354 346 326 300 297 302 300 299 294 287 280 275 273 273 273 273 271 269 269 269 267 259 258 260
186 195 153 147 226 242 159 250 38 125 115 98 70 38 11 42 49 11 357 352 349 346 345 348 344 335 330 323 305 294 292 296 300 301 294 286 280 274 271 271 271 272 271 270 269 268 266 258 256